DW7304 Weather Reports


Display with metric or nautical units.
time (UTC)temp
F
wind
direction
speed
MPH
gust
MPH
rain 1hr
in
rain 24hr
in
rain mn
in
humidity
%
barometer
mb
20260510001803 53 68 10.0 20.0 0.00 0.00 0.00 77 1011.9
20260510000903 53 78 10.0 19.0 0.00 0.00 0.00 77 1011.8
20260510000219 53 76 11.0 21.0 0.00 0.00 0.00 77 1011.7
20260509235403 54 74 12.0 18.0 0.00 0.00 0.00 77 1011.8
20260509234717 54 70 12.0 18.0 0.00 0.00 0.00 76 1011.9
20260509233818 54 74 12.0 21.0 0.00 0.00 0.00 76 1011.9
20260509232703 54 73 12.0 20.0 0.00 0.00 0.00 76 1012.1
20260509231803 54 78 14.0 21.0 0.00 0.00 0.00 76 1012.2
20260509230903 54 76 13.0 21.0 0.00 0.00 0.00 76 1012.1
20260509230004 54 76 12.0 19.0 0.00 0.00 0.00 75 1012.4
20260509225403 54 84 13.0 21.0 0.00 0.00 0.00 74 1012.4
20260509224503 55 87 12.0 23.0 0.00 0.00 0.00 74 1012.5
20260509223603 55 84 14.0 20.0 0.00 0.00 0.00 74 1012.4
20260509222703 55 81 13.0 20.0 0.00 0.00 0.00 74 1012.3
20260509221803 56 82 13.0 19.0 0.00 0.00 0.00 73 1012.3
20260509220903 56 82 11.0 16.0 0.00 0.00 0.00 73 1012.5
20260509220219 56 80 11.0 18.0 0.00 0.00 0.00 74 1012.5
20260509215403 55 79 10.0 18.0 0.00 0.00 0.00 74 1012.5
20260509214503 54 62 4.0 13.0 0.00 0.00 0.00 75 1012.5
20260509213603 55 93 1.0 3.0 0.00 0.00 0.00 75 1012.5
20260509212703 56 47 1.0 3.0 0.00 0.00 0.00 75 1012.6
20260509211803 55 42 2.0 2.0 0.00 0.00 0.00 75 1012.5
20260509211117 55 43 2.0 2.0 0.00 0.00 0.00 73 1012.5
20260509210003 55 49 2.0 3.0 0.00 0.00 0.00 72 1012.7
20260509205403 55 48 2.0 2.0 0.00 0.00 0.00 71 1012.6
20260509204717 55 51 2.0 2.0 0.00 0.00 0.00 71 1012.8
20260509203603 55 52 3.0 4.0 0.00 0.00 0.00 70 1012.7
20260509202916 55 56 2.0 3.0 0.00 0.00 0.00 70 1012.6
20260509201803 55 40 3.0 4.0 0.00 0.00 0.00 70 1012.5
20260509200903 55 57 2.0 3.0 0.00 0.00 0.00 69 1012.6
20260509200003 55 31 3.0 4.0 0.00 0.00 0.00 69 1012.5
20260509195403 55 33 3.0 4.0 0.00 0.00 0.00 70 1012.6
20260509194503 55 46 3.0 4.0 0.00 0.00 0.00 70 1012.5
20260509193603 55 44 3.0 4.0 0.00 0.00 0.00 70 1012.5
20260509192703 55 75 2.0 3.0 0.00 0.00 0.00 70 1012.7
20260509191803 55 76 2.0 3.0 0.00 0.00 0.00 70 1012.6
20260509190903 56 66 2.0 3.0 0.00 0.00 0.00 70 1012.8
20260509190003 56 61 2.0 3.0 0.00 0.00 0.00 69 1012.7
20260509185403 56 58 2.0 3.0 0.00 0.00 0.00 69 1012.6
20260509184503 56 112 1.0 3.0 0.00 0.00 0.00 68 1012.6
20260509183603 57 139 1.0 3.0 0.00 0.00 0.00 67 1012.5
20260509182917 58 233 0.0 2.0 0.00 0.00 0.00 66 1012.5
20260509181804 59 279 0.0 2.0 0.00 0.00 0.00 65 1012.4
20260509180903 59 96 0.0 3.0 0.00 0.00 0.00 64 1012.4
20260509180004 60 183 1.0 5.0 0.00 0.00 0.00 63 1012.4
20260509175617 60 191 2.0 5.0 0.00 0.00 0.00 62 1012.4
20260509174503 61 206 3.0 8.0 0.00 0.00 0.00 62 1012.4
20260509173818 62 209 4.0 10.0 0.00 0.00 0.00 61 1012.2
20260509172703 63 217 4.0 7.0 0.00 0.00 0.00 62 1012.1
20260509171803 63 216 4.0 7.0 0.00 0.00 0.00 61 1012.1
20260509170903 64 238 3.0 7.0 0.00 0.00 0.00 60 1011.8
20260509170003 65 258 4.0 9.0 0.00 0.00 0.00 59 1011.8
20260509165403 65 251 4.0 10.0 0.00 0.00 0.00 59 1011.9
20260509164503 65 242 5.0 10.0 0.00 0.00 0.00 60 1011.9
20260509163603 65 240 6.0 15.0 0.00 0.00 0.00 60 1011.7
20260509162703 66 240 4.0 15.0 0.00 0.00 0.00 60 1011.7
20260509161803 65 221 6.0 12.0 0.00 0.00 0.00 60 1011.8
20260509160903 66 211 6.0 11.0 0.00 0.00 0.00 59 1011.8
20260509160003 66 223 6.0 11.0 0.00 0.00 0.00 59 1011.8
20260509155403 66 215 6.0 12.0 0.00 0.00 0.00 57 1011.8
20260509154503 68 249 4.0 11.0 0.00 0.00 0.00 55 1012.3
20260509153603 67 250 5.0 13.0 0.00 0.00 0.00 57 1012.2
20260509152703 67 257 8.0 14.0 0.00 0.00 0.00 57 1012.2
20260509151803 67 237 5.0 12.0 0.00 0.00 0.00 57 1012.4
20260509150903 66 254 6.0 13.0 0.00 0.00 0.00 55 1012.4
20260509150003 67 223 5.0 13.0 0.00 0.00 0.00 53 1012.2
20260509145403 67 237 5.0 13.0 0.00 0.00 0.00 51 1012.3
20260509144503 67 210 6.0 13.0 0.00 0.00 0.00 52 1012.2
20260509143603 67 229 7.0 14.0 0.00 0.00 0.00 53 1012.3
20260509142703 67 233 7.0 16.0 0.00 0.00 0.00 53 1012.3
20260509141803 67 229 6.0 14.0 0.00 0.00 0.00 51 1012.2
20260509140903 67 218 7.0 13.0 0.00 0.00 0.00 51 1012.2
20260509140005 68 230 7.0 13.0 0.00 0.00 0.00 51 1012.1
20260509135618 68 240 7.0 14.0 0.00 0.00 0.00 53 1012.1
20260509134717 68 238 7.0 14.0 0.00 0.00 0.00 52 1011.9
20260509133603 67 227 5.0 12.0 0.00 0.00 0.00 51 1011.9
20260509132703 67 218 6.0 12.0 0.00 0.00 0.00 51 1012.1
20260509131803 67 201 5.0 12.0 0.00 0.00 0.00 53 1012.2
20260509130903 68 217 5.0 13.0 0.00 0.00 0.00 52 1012.1
20260509130218 68 223 6.0 15.0 0.00 0.00 0.00 53 1012.2
20260509125403 68 206 5.0 13.0 0.00 0.00 0.00 50 1012.2
20260509124503 67 216 6.0 12.0 0.00 0.00 0.00 51 1012.2
20260509123818 67 198 5.0 11.0 0.00 0.00 0.00 52 1012.3
20260509122703 67 247 6.0 11.0 0.00 0.00 0.00 53 1012.5
20260509122016 67 234 4.0 11.0 0.00 0.00 0.00 55 1012.6
20260509121118 67 220 5.0 13.0 0.00 0.00 0.00 53 1012.8
20260509120003 67 254 4.0 11.0 0.00 0.00 0.00 53 1012.8
20260509115617 68 257 4.0 11.0 0.00 0.00 0.00 53 1012.8
20260509114503 66 211 5.0 11.0 0.00 0.00 0.00 54 1012.8
20260509113603 66 218 4.0 11.0 0.00 0.00 0.00 56 1012.8
20260509112703 65 217 5.0 12.0 0.00 0.00 0.00 55 1012.9
20260509111803 66 219 6.0 13.0 0.00 0.00 0.00 55 1013.0
20260509110903 66 260 4.0 11.0 0.00 0.00 0.00 55 1013.0
20260509110003 66 262 4.0 10.0 0.00 0.00 0.00 53 1013.2
20260509105403 66 264 4.0 11.0 0.00 0.00 0.00 55 1013.3
20260509104503 66 251 5.0 11.0 0.00 0.00 0.00 57 1013.6
20260509103603 65 223 6.0 12.0 0.00 0.00 0.00 57 1013.3
20260509102703 65 230 5.0 10.0 0.00 0.00 0.00 59 1013.5
20260509101803 65 226 5.0 10.0 0.00 0.00 0.00 58 1013.5
20260509100903 66 265 2.0 7.0 0.00 0.00 0.00 58 1013.5
20260509100004 66 269 2.0 6.0 0.00 0.00 0.00 58 1013.5
20260509095403 65 260 4.0 10.0 0.00 0.00 0.00 59 1013.3
20260509094503 65 241 4.0 10.0 0.00 0.00 0.00 61 1013.5
20260509093603 64 255 4.0 8.0 0.00 0.00 0.00 61 1013.6
20260509092703 64 239 4.0 9.0 0.00 0.00 0.00 60 1013.2
20260509092017 64 255 3.0 9.0 0.00 0.00 0.00 60 1013.5
20260509090903 64 255 3.0 8.0 0.00 0.00 0.00 62 1013.3
20260509090004 64 249 4.0 10.0 0.00 0.00 0.00 65 1013.1
20260509085403 64 255 2.0 10.0 0.00 0.00 0.00 63 1013.2
20260509084503 64 265 2.0 6.0 0.00 0.00 0.00 63 1013.1
20260509083603 63 285 0.0 3.0 0.00 0.00 0.00 65 1013.1
20260509082703 62 311 1.0 4.0 0.00 0.00 0.00 68 1013.0
20260509081803 60 330 1.0 3.0 0.00 0.00 0.00 72 1013.1
20260509080903 58 22 1.0 2.0 0.00 0.00 0.00 74 1013.2
20260509080003 59 335 0.0 2.0 0.00 0.00 0.00 74 1013.2
20260509075403 58 23 0.0 2.0 0.00 0.00 0.00 75 1013.1
20260509074503 57 36 0.0 2.0 0.00 0.00 0.00 78 1013.1
20260509073603 57 249 0.0 2.0 0.00 0.00 0.00 77 1013.2
20260509072703 58 263 3.0 5.0 0.00 0.00 0.00 76 1013.2
20260509072017 59 264 2.0 5.0 0.00 0.00 0.00 75 1013.2
20260509070903 59 241 2.0 4.0 0.00 0.00 0.00 74 1012.9
20260509070003 59 259 1.0 3.0 0.00 0.00 0.00 75 1013.0
20260509065403 60 260 1.0 3.0 0.00 0.00 0.00 73 1013.0
20260509064503 60 147 0.0 2.0 0.00 0.00 0.00 72 1013.0
20260509063603 59 137 0.0 2.0 0.00 0.00 0.00 74 1012.9
20260509062703 58 157 0.0 2.0 0.00 0.00 0.00 74 1012.9
20260509061803 57 160 0.0 1.0 0.00 0.00 0.00 76 1013.0
20260509060903 56 0 0.0 0.0 0.00 0.00 0.00 78 1013.0
20260509060004 55 0 0.0 0.0 0.00 0.00 0.00 80 1012.9
20260509055403 54 0 0.0 0.0 0.00 0.00 0.00 81 1013.0
20260509054503 54 273 0.0 2.0 0.00 0.00 0.00 81 1012.9
20260509053603 54 271 0.0 2.0 0.00 0.00 0.00 80 1012.9
20260509052703 54 278 0.0 1.0 0.00 0.00 0.00 81 1012.8
20260509051803 53 30 1.0 3.0 0.00 0.00 0.00 82 1012.9
20260509051117 53 47 2.0 3.0 0.00 0.00 0.00 83 1012.9
20260509050003 51 77 1.0 3.0 0.00 0.00 0.00 84 1012.8
20260509045403 50 51 2.0 3.0 0.00 0.00 0.00 84 1012.9
20260509044718 50 31 2.0 3.0 0.00 0.00 0.00 83 1012.7
20260509043603 51 0 0.0 0.0 0.00 0.00 0.00 83 1012.8
20260509042703 51 0 0.0 0.0 0.00 0.00 0.00 82 1012.6
20260509041803 52 0 0.0 0.0 0.00 0.00 0.00 82 1012.6
20260509040903 51 0 0.0 0.0 0.00 0.00 0.00 81 1012.5
20260509040004 52 0 0.0 0.0 0.00 0.00 0.00 81 1012.4
20260509035403 51 0 0.0 0.0 0.00 0.00 0.00 82 1012.4
20260509034503 50 0 0.0 0.0 0.00 0.00 0.00 82 1012.4
20260509033603 51 0 0.0 0.0 0.00 0.00 0.00 82 1012.4
20260509032703 51 0 0.0 0.0 0.00 0.00 0.00 82 1012.3
20260509032017 51 0 0.0 0.0 0.00 0.00 0.00 82 1012.4
20260509030903 50 0 0.0 0.0 0.00 0.00 0.00 83 1012.5
20260509030003 51 0 0.0 0.0 0.00 0.00 0.00 83 1012.4
20260509025403 51 0 0.0 0.0 0.00 0.00 0.00 82 1012.4
20260509024503 51 45 0.0 1.0 0.00 0.00 0.00 82 1012.5
20260509023603 51 29 1.0 2.0 0.00 0.00 0.00 82 1012.4
20260509022703 51 7 2.0 4.0 0.00 0.00 0.00 82 1012.4
20260509021803 51 19 3.0 4.0 0.00 0.00 0.00 82 1012.4
20260509020903 51 32 3.0 4.0 0.00 0.00 0.00 82 1012.3
20260509020217 51 45 2.0 3.0 0.00 0.00 0.00 82 1012.4
20260509015617 51 43 1.0 2.0 0.00 0.00 0.00 82 1012.4
20260509014503 51 22 1.0 2.0 0.00 0.00 0.00 82 1012.4
20260509013603 51 14 0.0 2.0 0.00 0.00 0.00 82 1012.4
20260509012703 51 48 0.0 2.0 0.00 0.00 0.00 83 1012.4
20260509012017 51 58 2.0 2.0 0.00 0.00 0.00 82 1012.5
20260509010903 51 68 1.0 2.0 0.00 0.00 0.00 82 1012.6
20260509010217 52 0 0.0 0.0 0.00 0.00 0.00 83 1012.7
20260509005403 52 360 0.0 1.0 0.00 0.00 0.00 83 1012.8
20260509004718 52 14 1.0 2.0 0.00 0.00 0.00 83 1012.8
20260509003603 52 48 2.0 2.0 0.00 0.00 0.00 84 1012.7
20260509002704 51 41 3.0 4.0 0.00 0.00 0.00 85 1012.8